Time,TemperatureF,DewpointF,PressureIn,WindDirection,WindDirectionDegrees,WindSpeedMPH,WindSpeedGustMPH,Humidity,HourlyPrecipIn,Conditions,Clouds,dailyrainin,SoftwareType,DateUTC
2013-08-17 00:00:00,59.9,59.6,30.17,WSW,248,0.0,0.0,99,0.00,,---,0.00,VWS V14.00,2013-08-17 04:00:00,
2013-08-17 00:01:00,59.9,59.6,30.17,WSW,248,0.0,0.0,99,0.00,,---,0.00,VWS V14.00,2013-08-17 04:01:00,
2013-08-17 00:06:00,59.9,59.6,30.17,WSW,248,0.0,0.0,99,0.00,,---,0.00,VWS V14.00,2013-08-17 04:06:00,
2013-08-17 00:11:00,59.9,59.6,30.16,WSW,248,0.0,0.0,99,0.00,,---,0.00,VWS V14.00,2013-08-17 04:11:00,
2013-08-17 00:16:00,59.9,59.6,30.16,WSW,248,0.0,0.0,99,0.00,,---,0.00,VWS V14.00,2013-08-17 04:16:00,
2013-08-17 00:21:00,59.9,59.6,30.17,WSW,248,0.0,0.0,99,0.00,,---,0.00,VWS V14.00,2013-08-17 04:21:00,
2013-08-17 00:26:00,59.9,59.6,30.16,WSW,248,0.0,0.0,99,0.00,,---,0.00,VWS V14.00,2013-08-17 04:26:00,
2013-08-17 00:31:00,59.9,59.6,30.16,WSW,248,0.0,0.0,99,0.00,,---,0.00,VWS V14.00,2013-08-17 04:31:00,
2013-08-17 00:36:00,59.9,59.6,30.16,WSW,248,0.0,0.0,99,0.00,,---,0.00,VWS V14.00,2013-08-17 04:36:00,
2013-08-17 00:41:00,59.7,59.4,30.16,WSW,248,0.0,0.0,99,0.00,,---,0.00,VWS V14.00,2013-08-17 04:41:00,
2013-08-17 00:46:00,59.7,59.4,30.16,WSW,248,0.0,0.0,99,0.00,,---,0.00,VWS V14.00,2013-08-17 04:46:00,
2013-08-17 00:52:00,59.7,59.4,30.16,WSW,248,0.0,0.0,99,0.00,,---,0.00,VWS V14.00,2013-08-17 04:52:00,
2013-08-17 00:57:00,59.7,59.4,30.16,WSW,248,0.0,0.0,99,0.00,,---,0.00,VWS V14.00,2013-08-17 04:57:00,
2013-08-17 01:02:00,59.9,59.6,30.16,WSW,248,0.0,0.0,99,0.00,,---,0.00,VWS V14.00,2013-08-17 05:02:00,
2013-08-17 01:07:00,59.9,59.6,30.16,WSW,248,0.0,0.0,99,0.00,,---,0.00,VWS V14.00,2013-08-17 05:07:00,
2013-08-17 01:12:00,60.0,59.7,30.16,WSW,248,0.0,0.0,99,0.00,,---,0.00,VWS V14.00,2013-08-17 05:12:00,
2013-08-17 01:17:00,60.0,60.0,30.16,WSW,248,0.0,0.0,100,0.00,,---,0.00,VWS V14.00,2013-08-17 05:17:00,
2013-08-17 01:22:00,60.0,60.0,30.16,WSW,248,0.0,0.0,100,0.00,,---,0.00,VWS V14.00,2013-08-17 05:22:00,
2013-08-17 01:27:00,60.4,60.1,30.16,WSW,248,0.0,0.0,99,0.00,,---,0.00,VWS V14.00,2013-08-17 05:27:00,
2013-08-17 01:32:00,60.4,60.1,30.16,WSW,248,0.0,0.0,99,0.00,,---,0.00,VWS V14.00,2013-08-17 05:32:00,
2013-08-17 01:37:00,60.4,60.1,30.16,WSW,248,0.0,0.0,99,0.00,,---,0.00,VWS V14.00,2013-08-17 05:37:00,
2013-08-17 01:42:00,60.4,60.1,30.16,NW,315,0.0,0.0,99,0.00,,---,0.00,VWS V14.00,2013-08-17 05:42:00,
2013-08-17 01:47:00,60.6,60.3,30.16,NW,315,0.0,0.0,99,0.00,,---,0.00,VWS V14.00,2013-08-17 05:47:00,
2013-08-17 01:52:00,60.6,60.0,30.16,NW,315,0.0,0.0,98,0.00,,---,0.00,VWS V14.00,2013-08-17 05:52:00,
2013-08-17 01:57:00,60.6,60.0,30.16,NW,315,0.0,0.0,98,0.00,,---,0.00,VWS V14.00,2013-08-17 05:57:00,
2013-08-17 02:02:00,60.6,60.0,30.16,NW,315,0.0,0.0,98,0.00,,---,0.00,VWS V14.00,2013-08-17 06:02:00,
2013-08-17 02:07:00,60.6,60.0,30.16,NW,315,0.0,0.0,98,0.00,,---,0.00,VWS V14.00,2013-08-17 06:07:00,
2013-08-17 02:12:00,60.6,60.0,30.16,NW,315,0.0,0.0,98,0.00,,---,0.00,VWS V14.00,2013-08-17 06:12:00,
2013-08-17 02:17:00,60.6,59.8,30.16,NW,315,0.0,0.0,97,0.00,,---,0.00,VWS V14.00,2013-08-17 06:17:00,
2013-08-17 02:22:00,60.6,59.8,30.16,NW,315,0.0,0.0,97,0.00,,---,0.00,VWS V14.00,2013-08-17 06:22:00,
2013-08-17 02:27:00,60.6,59.8,30.16,NW,315,0.0,0.0,97,0.00,,---,0.00,VWS V14.00,2013-08-17 06:27:00,
2013-08-17 02:32:00,60.6,59.8,30.16,NW,315,0.0,0.0,97,0.00,,---,0.00,VWS V14.00,2013-08-17 06:32:00,
2013-08-17 02:37:00,60.4,59.5,30.16,NW,315,0.0,0.0,97,0.00,,---,0.00,VWS V14.00,2013-08-17 06:37:00,
2013-08-17 02:42:00,60.4,59.8,30.16,NW,315,0.0,0.0,98,0.00,,---,0.00,VWS V14.00,2013-08-17 06:42:00,
2013-08-17 02:47:00,60.2,59.6,30.16,NW,315,0.0,0.0,98,0.00,,---,0.00,VWS V14.00,2013-08-17 06:47:00,
2013-08-17 02:53:00,60.2,59.6,30.16,NW,315,0.0,0.0,98,0.00,,---,0.00,VWS V14.00,2013-08-17 06:53:00,
2013-08-17 02:58:00,60.0,59.2,30.16,NW,315,0.0,0.0,97,0.00,,---,0.00,VWS V14.00,2013-08-17 06:58:00,
2013-08-17 03:03:00,60.2,59.3,30.16,NW,315,0.0,0.0,97,0.00,,---,0.00,VWS V14.00,2013-08-17 07:03:00,
2013-08-17 03:08:00,60.2,59.3,30.16,NW,315,0.0,0.0,97,0.00,,---,0.00,VWS V14.00,2013-08-17 07:08:00,
2013-08-17 03:13:00,60.4,59.5,30.16,NW,315,0.0,0.0,97,0.00,,---,0.00,VWS V14.00,2013-08-17 07:13:00,
2013-08-17 03:18:00,60.4,59.5,30.16,NW,315,0.0,0.0,97,0.00,,---,0.00,VWS V14.00,2013-08-17 07:18:00,
2013-08-17 03:23:00,60.4,59.5,30.16,NW,315,0.0,0.0,97,0.00,,---,0.00,VWS V14.00,2013-08-17 07:23:00,
2013-08-17 03:28:00,60.2,59.3,30.16,WNW,292,0.0,0.0,97,0.00,,---,0.00,VWS V14.00,2013-08-17 07:28:00,
2013-08-17 03:33:00,60.2,59.3,30.16,WNW,292,0.0,0.0,97,0.00,,---,0.00,VWS V14.00,2013-08-17 07:33:00,
2013-08-17 03:38:00,60.2,59.3,30.16,WNW,292,0.0,0.0,97,0.00,,---,0.00,VWS V14.00,2013-08-17 07:38:00,
2013-08-17 03:43:00,60.2,59.3,30.16,WNW,292,0.0,0.0,97,0.00,,---,0.00,VWS V14.00,2013-08-17 07:43:00,
2013-08-17 03:48:00,60.2,59.3,30.16,WNW,292,0.0,0.0,97,0.00,,---,0.00,VWS V14.00,2013-08-17 07:48:00,
2013-08-17 03:53:00,60.0,59.2,30.16,West,270,0.0,0.0,97,0.00,,---,0.00,VWS V14.00,2013-08-17 07:53:00,
2013-08-17 03:58:00,60.0,59.2,30.16,West,270,0.0,0.0,97,0.00,,---,0.00,VWS V14.00,2013-08-17 07:58:00,
2013-08-17 04:03:00,60.0,58.9,30.16,West,270,0.0,0.0,96,0.00,,---,0.00,VWS V14.00,2013-08-17 08:03:00,
2013-08-17 04:08:00,60.0,59.2,30.16,West,270,0.0,0.0,97,0.00,,---,0.00,VWS V14.00,2013-08-17 08:08:00,
2013-08-17 04:13:00,59.9,59.0,30.16,West,270,0.0,0.0,97,0.00,,---,0.00,VWS V14.00,2013-08-17 08:13:00,
2013-08-17 04:18:00,59.9,59.0,30.16,West,270,0.0,0.0,97,0.00,,---,0.00,VWS V14.00,2013-08-17 08:18:00,
2013-08-17 04:23:00,59.7,58.8,30.16,West,270,0.0,0.0,97,0.00,,---,0.00,VWS V14.00,2013-08-17 08:23:00,
2013-08-17 04:28:00,59.7,58.8,30.16,West,270,0.0,0.0,97,0.00,,---,0.00,VWS V14.00,2013-08-17 08:28:00,
2013-08-17 04:33:00,59.5,58.7,30.16,West,270,0.0,0.0,97,0.00,,---,0.00,VWS V14.00,2013-08-17 08:33:00,
2013-08-17 04:38:00,59.5,58.7,30.16,West,270,0.0,0.0,97,0.00,,---,0.00,VWS V14.00,2013-08-17 08:38:00,
2013-08-17 04:43:00,59.5,58.7,30.16,West,270,0.0,0.0,97,0.00,,---,0.00,VWS V14.00,2013-08-17 08:43:00,
2013-08-17 04:48:00,59.5,58.7,30.16,West,270,0.0,0.0,97,0.00,,---,0.00,VWS V14.00,2013-08-17 08:48:00,
2013-08-17 04:53:00,59.5,58.7,30.15,West,270,0.0,0.0,97,0.00,,---,0.00,VWS V14.00,2013-08-17 08:53:00,
2013-08-17 04:58:00,59.3,58.5,30.15,West,270,0.0,0.0,97,0.00,,---,0.00,VWS V14.00,2013-08-17 08:58:00,
2013-08-17 05:03:00,59.5,58.7,30.15,West,270,0.0,0.0,97,0.00,,---,0.00,VWS V14.00,2013-08-17 09:03:00,
2013-08-17 05:09:00,59.5,58.7,30.15,West,270,0.0,0.0,97,0.00,,---,0.00,VWS V14.00,2013-08-17 09:09:00,
2013-08-17 05:14:00,59.3,58.7,30.15,West,270,0.0,0.0,98,0.00,,---,0.00,VWS V14.00,2013-08-17 09:14:00,
2013-08-17 05:19:00,59.3,58.7,30.15,West,270,0.0,0.0,98,0.00,,---,0.00,VWS V14.00,2013-08-17 09:19:00,
2013-08-17 05:24:00,59.1,58.5,30.15,West,270,0.0,0.0,98,0.00,,---,0.00,VWS V14.00,2013-08-17 09:24:00,
2013-08-17 05:29:00,59.1,58.5,30.15,West,270,0.0,0.0,98,0.00,,---,0.00,VWS V14.00,2013-08-17 09:29:00,
2013-08-17 05:34:00,58.8,58.2,30.15,West,270,0.0,0.0,98,0.00,,---,0.00,VWS V14.00,2013-08-17 09:34:00,
2013-08-17 05:39:00,58.8,58.2,30.15,West,270,0.0,0.0,98,0.00,,---,0.00,VWS V14.00,2013-08-17 09:39:00,
2013-08-17 05:44:00,58.8,58.2,30.15,West,270,0.0,0.0,98,0.00,,---,0.00,VWS V14.00,2013-08-17 09:44:00,
2013-08-17 05:49:00,58.8,58.2,30.15,West,270,0.0,0.0,98,0.00,,---,0.00,VWS V14.00,2013-08-17 09:49:00,
2013-08-17 05:54:00,58.8,58.5,30.15,West,270,0.0,0.0,99,0.00,,---,0.00,VWS V14.00,2013-08-17 09:54:00,
2013-08-17 05:59:00,58.8,58.5,30.15,West,270,0.0,0.0,99,0.00,,---,0.00,VWS V14.00,2013-08-17 09:59:00,
2013-08-17 06:04:00,58.8,58.5,30.15,West,270,0.0,0.0,99,0.00,,---,0.00,VWS V14.00,2013-08-17 10:04:00,
2013-08-17 06:09:00,58.8,58.5,30.15,West,270,0.0,0.0,99,0.00,,---,0.00,VWS V14.00,2013-08-17 10:09:00,
2013-08-17 06:14:00,58.8,58.5,30.15,West,270,0.0,0.0,99,0.00,,---,0.00,VWS V14.00,2013-08-17 10:14:00,
2013-08-17 06:19:00,58.8,58.8,30.15,West,270,0.0,0.0,100,0.00,,---,0.00,VWS V14.00,2013-08-17 10:19:00,
2013-08-17 06:24:00,58.8,58.8,30.15,West,270,0.0,0.0,100,0.00,,---,0.00,VWS V14.00,2013-08-17 10:24:00,
2013-08-17 06:29:00,58.8,58.8,30.15,West,270,0.0,0.0,100,0.00,,---,0.00,VWS V14.00,2013-08-17 10:29:00,
2013-08-17 06:34:00,58.8,58.8,30.15,West,270,0.0,0.0,100,0.00,,---,0.00,VWS V14.00,2013-08-17 10:34:00,
2013-08-17 06:39:00,58.8,58.8,30.16,West,270,0.0,0.0,100,0.00,,---,0.00,VWS V14.00,2013-08-17 10:39:00,
2013-08-17 06:44:00,58.8,58.8,30.16,West,270,0.0,0.0,100,0.00,,---,0.00,VWS V14.00,2013-08-17 10:44:00,
2013-08-17 06:49:00,58.8,58.8,30.16,West,270,0.0,0.0,100,0.00,,---,0.00,VWS V14.00,2013-08-17 10:49:00,
2013-08-17 06:54:00,58.8,58.8,30.16,West,270,0.0,0.0,100,0.00,,---,0.00,VWS V14.00,2013-08-17 10:54:00,
2013-08-17 06:59:00,58.8,58.8,30.16,West,270,0.0,0.0,100,0.00,,---,0.00,VWS V14.00,2013-08-17 10:59:00,
2013-08-17 07:04:00,58.8,58.8,30.16,West,270,0.0,0.0,100,0.00,,---,0.00,VWS V14.00,2013-08-17 11:04:00,
2013-08-17 07:09:00,58.8,58.8,30.16,West,270,0.0,0.0,100,0.00,,---,0.00,VWS V14.00,2013-08-17 11:09:00,
2013-08-17 07:14:00,58.8,58.8,30.16,West,270,0.0,0.0,100,0.00,,---,0.00,VWS V14.00,2013-08-17 11:14:00,
2013-08-17 07:19:00,58.8,58.8,30.16,West,270,0.0,0.0,100,0.00,,---,0.00,VWS V14.00,2013-08-17 11:19:00,
2013-08-17 07:24:00,58.8,58.8,30.16,West,270,0.0,0.0,100,0.00,,---,0.00,VWS V14.00,2013-08-17 11:24:00,
2013-08-17 07:29:00,58.8,58.8,30.17,West,270,0.0,0.0,100,0.00,,---,0.00,VWS V14.00,2013-08-17 11:29:00,
2013-08-17 07:34:00,59.0,59.0,30.17,West,270,0.0,0.0,100,0.00,,---,0.00,VWS V14.00,2013-08-17 11:34:00,
2013-08-17 07:39:00,59.1,59.1,30.17,West,270,0.0,0.0,100,0.00,,---,0.00,VWS V14.00,2013-08-17 11:39:00,
2013-08-17 07:44:00,59.1,59.1,30.17,West,270,0.0,0.0,100,0.00,,---,0.00,VWS V14.00,2013-08-17 11:44:00,
2013-08-17 07:49:00,59.3,59.3,30.17,West,270,0.0,0.0,100,0.00,,---,0.00,VWS V14.00,2013-08-17 11:49:00,
2013-08-17 07:54:00,59.7,59.7,30.16,West,270,0.0,0.0,100,0.00,,---,0.00,VWS V14.00,2013-08-17 11:54:00,
2013-08-17 07:59:00,60.0,60.0,30.17,West,270,0.0,0.0,100,0.00,,---,0.00,VWS V14.00,2013-08-17 11:59:00,
2013-08-17 08:04:00,60.0,60.0,30.17,West,270,0.0,0.0,100,0.00,,---,0.00,VWS V14.00,2013-08-17 12:04:00,
2013-08-17 08:06:00,60.4,60.4,30.17,West,270,0.0,0.0,100,0.00,,---,0.00,VWS V14.00,2013-08-17 12:06:00,
2013-08-17 08:11:00,60.6,60.6,30.17,West,270,0.0,0.0,100,0.00,,---,0.00,VWS V14.00,2013-08-17 12:11:00,
2013-08-17 08:16:00,60.8,60.8,30.17,West,270,0.0,0.0,100,0.00,,---,0.00,VWS V14.00,2013-08-17 12:16:00,
2013-08-17 08:21:00,60.9,60.9,30.17,West,270,0.0,0.0,100,0.00,,---,0.00,VWS V14.00,2013-08-17 12:21:00,
2013-08-17 08:26:00,61.5,61.5,30.17,West,270,0.0,0.0,100,0.00,,---,0.00,VWS V14.00,2013-08-17 12:26:00,
2013-08-17 08:31:00,62.0,62.0,30.17,West,270,0.0,0.0,100,0.00,,---,0.00,VWS V14.00,2013-08-17 12:31:00,
2013-08-17 08:36:00,62.4,62.1,30.17,West,270,0.0,0.0,99,0.00,,---,0.00,VWS V14.00,2013-08-17 12:36:00,
2013-08-17 08:41:00,62.4,61.8,30.17,West,270,0.0,0.0,98,0.00,,---,0.00,VWS V14.00,2013-08-17 12:41:00,
2013-08-17 08:46:00,62.4,61.5,30.17,West,270,0.0,0.0,97,0.00,,---,0.00,VWS V14.00,2013-08-17 12:46:00,
2013-08-17 08:51:00,62.6,61.5,30.17,West,270,0.0,0.0,96,0.00,,---,0.00,VWS V14.00,2013-08-17 12:51:00,
2013-08-17 08:56:00,62.7,61.2,30.17,WNW,292,0.0,0.0,95,0.00,,---,0.00,VWS V14.00,2013-08-17 12:56:00,
2013-08-17 09:01:00,63.3,61.2,30.17,ESE,112,0.0,0.0,93,0.00,,---,0.00,VWS V14.00,2013-08-17 13:01:00,
2013-08-17 09:06:00,63.6,61.5,30.17,SE,135,0.0,0.0,93,0.00,,---,0.00,VWS V14.00,2013-08-17 13:06:00,
2013-08-17 09:11:00,64.2,61.5,30.17,NW,315,0.0,0.0,91,0.00,,---,0.00,VWS V14.00,2013-08-17 13:11:00,
2013-08-17 09:16:00,64.2,61.5,30.18,ENE,68,0.0,0.0,91,0.00,,---,0.00,VWS V14.00,2013-08-17 13:16:00,
2013-08-17 09:21:00,64.5,61.8,30.18,NNW,338,0.0,0.0,91,0.00,,---,0.00,VWS V14.00,2013-08-17 13:21:00,
2013-08-17 09:26:00,64.2,60.9,30.18,NNW,338,0.0,0.0,89,0.00,,---,0.00,VWS V14.00,2013-08-17 13:26:00,
2013-08-17 09:31:00,64.0,60.7,30.18,NNE,22,0.0,0.0,89,0.00,,---,0.00,VWS V14.00,2013-08-17 13:31:00,
2013-08-17 09:36:00,64.0,61.0,30.18,NNE,22,0.0,0.0,90,0.00,,---,0.00,VWS V14.00,2013-08-17 13:36:00,
2013-08-17 09:41:00,64.2,60.9,30.18,ENE,68,0.0,0.0,89,0.00,,---,0.00,VWS V14.00,2013-08-17 13:41:00,
2013-08-17 09:46:00,64.2,61.2,30.18,ENE,68,0.0,0.0,90,0.00,,---,0.00,VWS V14.00,2013-08-17 13:46:00,
2013-08-17 09:51:00,64.2,61.2,30.19,NE,45,0.0,0.0,90,0.00,,---,0.00,VWS V14.00,2013-08-17 13:51:00,
2013-08-17 09:57:00,64.5,61.5,30.18,NE,45,0.0,0.0,90,0.00,,---,0.00,VWS V14.00,2013-08-17 13:57:00,
2013-08-17 10:02:00,65.3,62.3,30.18,ENE,68,0.0,0.0,90,0.00,,---,0.00,VWS V14.00,2013-08-17 14:02:00,
2013-08-17 10:07:00,65.6,62.3,30.18,NNE,22,0.0,0.0,89,0.00,,---,0.00,VWS V14.00,2013-08-17 14:07:00,
2013-08-17 10:12:00,66.0,62.7,30.18,NNE,22,0.0,0.0,89,0.00,,---,0.00,VWS V14.00,2013-08-17 14:12:00,
2013-08-17 10:17:00,66.2,62.5,30.19,NNE,22,0.0,0.0,88,0.00,,---,0.00,VWS V14.00,2013-08-17 14:17:00,
2013-08-17 10:22:00,66.5,62.5,30.19,NNE,22,0.0,0.0,87,0.00,,---,0.00,VWS V14.00,2013-08-17 14:22:00,
2013-08-17 10:27:00,66.3,62.3,30.19,NE,45,0.0,0.0,87,0.00,,---,0.00,VWS V14.00,2013-08-17 14:27:00,
2013-08-17 10:32:00,66.3,62.3,30.19,ENE,68,0.0,0.0,87,0.00,,---,0.00,VWS V14.00,2013-08-17 14:32:00,
2013-08-17 10:37:00,66.7,62.7,30.19,NNE,22,0.0,0.0,87,0.00,,---,0.00,VWS V14.00,2013-08-17 14:37:00,
2013-08-17 10:42:00,66.9,62.2,30.19,NNE,22,0.0,0.0,85,0.00,,---,0.00,VWS V14.00,2013-08-17 14:42:00,
2013-08-17 10:47:00,66.7,62.0,30.19,NE,45,0.0,0.0,85,0.00,,---,0.00,VWS V14.00,2013-08-17 14:47:00,
2013-08-17 10:52:00,66.9,62.2,30.19,NE,45,0.0,0.0,85,0.00,,---,0.00,VWS V14.00,2013-08-17 14:52:00,
2013-08-17 10:57:00,67.2,62.5,30.19,NE,45,0.0,0.0,85,0.00,,---,0.00,VWS V14.00,2013-08-17 14:57:00,
2013-08-17 11:02:00,67.2,62.5,30.19,NNE,22,0.0,0.0,85,0.00,,---,0.00,VWS V14.00,2013-08-17 15:02:00,
2013-08-17 11:07:00,67.4,62.4,30.19,NE,45,0.0,0.0,84,0.00,,---,0.00,VWS V14.00,2013-08-17 15:07:00,
2013-08-17 11:12:00,67.2,62.2,30.18,ENE,68,0.0,0.0,84,0.00,,---,0.00,VWS V14.00,2013-08-17 15:12:00,
2013-08-17 11:17:00,67.8,63.1,30.19,NNE,22,0.0,0.0,85,0.00,,---,0.00,VWS V14.00,2013-08-17 15:17:00,
2013-08-17 11:22:00,68.5,63.5,30.18,NE,45,0.0,0.0,84,0.00,,---,0.00,VWS V14.00,2013-08-17 15:22:00,
2013-08-17 11:27:00,69.4,64.0,30.18,NNE,22,0.0,0.0,83,0.00,,---,0.00,VWS V14.00,2013-08-17 15:27:00,
2013-08-17 11:32:00,69.6,63.9,30.19,NNE,22,0.0,0.0,82,0.00,,---,0.00,VWS V14.00,2013-08-17 15:32:00,
2013-08-17 11:37:00,69.6,63.9,30.18,NW,315,0.0,0.0,82,0.00,,---,0.00,VWS V14.00,2013-08-17 15:37:00,
2013-08-17 11:42:00,69.6,63.9,30.18,NNE,22,0.0,0.0,82,0.00,,---,0.00,VWS V14.00,2013-08-17 15:42:00,
2013-08-17 11:47:00,69.6,64.2,30.19,NNE,22,0.0,0.0,83,0.00,,---,0.00,VWS V14.00,2013-08-17 15:47:00,
2013-08-17 11:52:00,69.6,64.2,30.18,East,90,0.0,0.0,83,0.00,,---,0.00,VWS V14.00,2013-08-17 15:52:00,
2013-08-17 11:57:00,69.4,63.7,30.19,NE,45,0.0,0.0,82,0.00,,---,0.00,VWS V14.00,2013-08-17 15:57:00,
2013-08-17 12:02:00,69.0,63.6,30.19,WSW,248,0.0,0.0,83,0.00,,---,0.00,VWS V14.00,2013-08-17 16:02:00,
2013-08-17 12:07:00,68.7,63.3,30.19,NE,45,0.0,0.0,83,0.00,,---,0.00,VWS V14.00,2013-08-17 16:07:00,
2013-08-17 12:12:00,68.5,63.1,30.19,NNE,22,0.0,0.0,83,0.00,,---,0.00,VWS V14.00,2013-08-17 16:12:00,
2013-08-17 12:17:00,68.3,62.9,30.18,SE,135,0.0,0.0,83,0.00,,---,0.00,VWS V14.00,2013-08-17 16:17:00,
2013-08-17 12:22:00,68.5,63.5,30.18,SE,135,0.0,0.0,84,0.00,,---,0.00,VWS V14.00,2013-08-17 16:22:00,
2013-08-17 12:27:00,69.0,64.3,30.18,SE,135,0.0,0.0,85,0.00,,---,0.00,VWS V14.00,2013-08-17 16:27:00,
2013-08-17 12:32:00,69.0,64.0,30.18,WNW,292,0.0,0.0,84,0.00,,---,0.00,VWS V14.00,2013-08-17 16:32:00,
2013-08-17 12:37:00,68.9,64.2,30.18,WNW,292,0.0,0.0,85,0.00,,---,0.00,VWS V14.00,2013-08-17 16:37:00,
2013-08-17 12:42:00,69.0,64.3,30.18,SSE,158,0.0,0.0,85,0.00,,---,0.00,VWS V14.00,2013-08-17 16:42:00,
2013-08-17 12:47:00,69.4,64.7,30.18,WSW,248,0.0,0.0,85,0.00,,---,0.00,VWS V14.00,2013-08-17 16:47:00,
2013-08-17 12:52:00,69.6,64.6,30.17,WSW,248,0.0,0.0,84,0.00,,---,0.00,VWS V14.00,2013-08-17 16:52:00,
2013-08-17 12:57:00,69.8,64.8,30.17,ENE,68,0.0,0.0,84,0.00,,---,0.00,VWS V14.00,2013-08-17 16:57:00,
2013-08-17 13:02:00,69.8,64.4,30.17,North,0,0.0,0.0,83,0.00,,---,0.00,VWS V14.00,2013-08-17 17:02:00,
2013-08-17 13:07:00,70.1,64.7,30.17,SSE,158,0.0,0.0,83,0.00,,---,0.00,VWS V14.00,2013-08-17 17:07:00,
2013-08-17 13:12:00,71.2,65.8,30.17,SE,135,0.0,0.0,83,0.00,,---,0.00,VWS V14.00,2013-08-17 17:12:00,
2013-08-17 13:17:00,71.9,65.8,30.17,SSW,202,0.0,0.0,81,0.00,,---,0.00,VWS V14.00,2013-08-17 17:17:00,
2013-08-17 13:22:00,72.1,65.9,30.17,SW,225,0.0,0.0,81,0.00,,---,0.00,VWS V14.00,2013-08-17 17:22:00,
2013-08-17 13:27:00,71.7,65.6,30.17,SSW,202,0.0,0.0,81,0.00,,---,0.00,VWS V14.00,2013-08-17 17:27:00,
2013-08-17 13:32:00,71.4,65.3,30.17,SSW,202,0.0,0.0,81,0.00,,---,0.00,VWS V14.00,2013-08-17 17:32:00,
2013-08-17 13:37:00,71.2,65.1,30.17,SSW,202,0.0,0.0,81,0.00,,---,0.00,VWS V14.00,2013-08-17 17:37:00,
2013-08-17 13:42:00,70.5,64.4,30.17,SSW,202,0.0,0.0,81,0.00,,---,0.00,VWS V14.00,2013-08-17 17:42:00,
2013-08-17 13:47:00,70.3,64.6,30.17,SW,225,0.0,0.0,82,0.00,,---,0.00,VWS V14.00,2013-08-17 17:47:00,
2013-08-17 13:52:00,69.9,64.2,30.17,West,270,0.0,0.0,82,0.00,,---,0.00,VWS V14.00,2013-08-17 17:52:00,
2013-08-17 13:58:00,69.8,64.4,30.17,West,270,0.0,0.0,83,0.00,,---,0.00,VWS V14.00,2013-08-17 17:58:00,
2013-08-17 14:03:00,69.2,63.8,30.16,WSW,248,0.0,0.0,83,0.00,,---,0.00,VWS V14.00,2013-08-17 18:03:00,
2013-08-17 14:08:00,69.0,63.6,30.16,NW,315,0.0,0.0,83,0.00,,---,0.00,VWS V14.00,2013-08-17 18:08:00,
2013-08-17 14:13:00,68.7,63.7,30.16,NW,315,0.0,0.0,84,0.00,,---,0.00,VWS V14.00,2013-08-17 18:13:00,
2013-08-17 14:18:00,68.3,63.6,30.16,NW,315,0.0,0.0,85,0.00,,---,0.00,VWS V14.00,2013-08-17 18:18:00,
2013-08-17 14:23:00,68.1,63.4,30.16,NNE,22,0.0,0.0,85,0.00,,---,0.00,VWS V14.00,2013-08-17 18:23:00,
2013-08-17 14:28:00,67.8,63.5,30.16,North,0,0.0,0.0,86,0.00,,---,0.00,VWS V14.00,2013-08-17 18:28:00,
2013-08-17 14:33:00,67.6,63.3,30.17,NE,45,0.0,0.0,86,0.00,,---,0.00,VWS V14.00,2013-08-17 18:33:00,
2013-08-17 14:38:00,67.6,63.6,30.16,WSW,248,0.0,0.0,87,0.00,,---,0.00,VWS V14.00,2013-08-17 18:38:00,
2013-08-17 14:43:00,67.2,63.2,30.16,WSW,248,0.0,0.0,87,0.00,,---,0.00,VWS V14.00,2013-08-17 18:43:00,
2013-08-17 14:48:00,67.4,63.4,30.16,SW,225,0.0,0.0,87,0.00,,---,0.00,VWS V14.00,2013-08-17 18:48:00,
2013-08-17 14:53:00,67.2,63.5,30.16,SW,225,0.0,0.0,88,0.00,,---,0.00,VWS V14.00,2013-08-17 18:53:00,
2013-08-17 14:58:00,67.2,63.5,30.16,SSW,202,0.0,0.0,88,0.00,,---,0.00,VWS V14.00,2013-08-17 18:58:00,
2013-08-17 15:03:00,67.1,63.4,30.16,ENE,68,0.0,0.0,88,0.00,,---,0.00,VWS V14.00,2013-08-17 19:03:00,
2013-08-17 15:08:00,66.7,63.0,30.15,NNE,22,0.0,0.0,88,0.00,,---,0.00,VWS V14.00,2013-08-17 19:08:00,
2013-08-17 15:13:00,66.3,63.0,30.15,NNE,22,0.0,0.0,89,0.00,,---,0.00,VWS V14.00,2013-08-17 19:13:00,
2013-08-17 15:18:00,66.2,62.9,30.15,NE,45,0.0,0.0,89,0.00,,---,0.00,VWS V14.00,2013-08-17 19:18:00,
2013-08-17 15:23:00,66.0,63.0,30.15,ENE,68,0.0,0.0,90,0.00,,---,0.00,VWS V14.00,2013-08-17 19:23:00,
2013-08-17 15:28:00,66.0,63.0,30.15,ENE,68,0.0,0.0,90,0.00,,---,0.00,VWS V14.00,2013-08-17 19:28:00,
2013-08-17 15:33:00,66.0,63.0,30.15,ENE,68,0.0,0.0,90,0.00,,---,0.00,VWS V14.00,2013-08-17 19:33:00,
2013-08-17 15:38:00,66.0,63.0,30.15,NE,45,0.0,0.0,90,0.00,,---,0.00,VWS V14.00,2013-08-17 19:38:00,
2013-08-17 15:43:00,65.8,62.8,30.15,NE,45,0.0,0.0,90,0.00,,---,0.00,VWS V14.00,2013-08-17 19:43:00,
2013-08-17 15:48:00,65.6,62.6,30.15,NE,45,0.0,0.0,90,0.00,,---,0.00,VWS V14.00,2013-08-17 19:48:00,
2013-08-17 15:53:00,65.8,62.8,30.15,NE,45,0.0,0.0,90,0.00,,---,0.00,VWS V14.00,2013-08-17 19:53:00,
2013-08-17 15:58:00,65.6,62.9,30.15,ENE,68,0.0,0.0,91,0.00,,---,0.00,VWS V14.00,2013-08-17 19:58:00,
2013-08-17 16:03:00,65.8,63.1,30.15,ENE,68,0.0,0.0,91,0.00,,---,0.00,VWS V14.00,2013-08-17 20:03:00,
2013-08-17 16:08:00,65.4,62.7,30.15,NE,45,0.0,0.0,91,0.00,,---,0.00,VWS V14.00,2013-08-17 20:08:00,
2013-08-17 16:13:00,65.4,62.7,30.15,NE,45,0.0,0.0,91,0.00,,---,0.00,VWS V14.00,2013-08-17 20:13:00,
2013-08-17 16:18:00,65.4,63.0,30.15,NE,45,0.0,0.0,92,0.00,,---,0.00,VWS V14.00,2013-08-17 20:18:00,
2013-08-17 16:23:00,65.3,62.9,30.15,NE,45,0.0,0.0,92,0.00,,---,0.00,VWS V14.00,2013-08-17 20:23:00,
2013-08-17 16:28:00,65.3,62.9,30.14,NE,45,0.0,0.0,92,0.00,,---,0.00,VWS V14.00,2013-08-17 20:28:00,
2013-08-17 16:33:00,65.1,62.7,30.14,NNW,338,0.0,0.0,92,0.00,,---,0.00,VWS V14.00,2013-08-17 20:33:00,
2013-08-17 16:38:00,65.1,62.7,30.14,NNW,338,0.0,0.0,92,0.00,,---,0.00,VWS V14.00,2013-08-17 20:38:00,
2013-08-17 16:43:00,65.1,62.7,30.14,NNW,338,0.0,0.0,92,0.00,,---,0.00,VWS V14.00,2013-08-17 20:43:00,
2013-08-17 16:48:00,65.1,62.7,30.14,NW,315,0.0,0.0,92,0.00,,---,0.00,VWS V14.00,2013-08-17 20:48:00,
2013-08-17 16:53:00,65.1,63.0,30.14,NW,315,0.0,0.0,93,0.00,,---,0.00,VWS V14.00,2013-08-17 20:53:00,
2013-08-17 16:58:00,64.9,62.8,30.14,NNW,338,0.0,0.0,93,0.00,,---,0.00,VWS V14.00,2013-08-17 20:58:00,
2013-08-17 17:03:00,64.7,62.6,30.14,WNW,292,0.0,0.0,93,0.00,,---,0.00,VWS V14.00,2013-08-17 21:03:00,
2013-08-17 17:08:00,64.7,62.6,30.14,WNW,292,0.0,0.0,93,0.00,,---,0.00,VWS V14.00,2013-08-17 21:08:00,
2013-08-17 17:13:00,64.5,62.7,30.14,WNW,292,0.0,0.0,94,0.00,,---,0.00,VWS V14.00,2013-08-17 21:13:00,
2013-08-17 17:18:00,64.5,62.7,30.14,WNW,292,0.0,0.0,94,0.00,,---,0.00,VWS V14.00,2013-08-17 21:18:00,
2013-08-17 17:23:00,64.5,62.7,30.14,WNW,292,0.0,0.0,94,0.00,,---,0.00,VWS V14.00,2013-08-17 21:23:00,
2013-08-17 17:28:00,64.4,62.6,30.14,WNW,292,0.0,0.0,94,0.00,,---,0.00,VWS V14.00,2013-08-17 21:28:00,
2013-08-17 17:33:00,64.5,63.0,30.14,WNW,292,0.0,0.0,95,0.00,,---,0.00,VWS V14.00,2013-08-17 21:33:00,
2013-08-17 17:38:00,64.5,63.0,30.14,WNW,292,0.0,0.0,95,0.00,,---,0.00,VWS V14.00,2013-08-17 21:38:00,
2013-08-17 17:43:00,64.5,63.0,30.14,WNW,292,0.0,0.0,95,0.00,,---,0.00,VWS V14.00,2013-08-17 21:43:00,
2013-08-17 17:48:00,64.4,62.9,30.14,WNW,292,0.0,0.0,95,0.00,,---,0.00,VWS V14.00,2013-08-17 21:48:00,
2013-08-17 17:53:00,64.2,62.7,30.14,WNW,292,0.0,0.0,95,0.00,,---,0.00,VWS V14.00,2013-08-17 21:53:00,
2013-08-17 17:58:00,64.4,63.2,30.14,WNW,292,0.0,0.0,96,0.00,,---,0.00,VWS V14.00,2013-08-17 21:58:00,
2013-08-17 18:03:00,64.5,63.3,30.14,WNW,292,0.0,0.0,96,0.02,,---,0.02,VWS V14.00,2013-08-17 22:03:00,
2013-08-17 18:08:00,64.4,63.2,30.14,WNW,292,0.0,0.0,96,0.02,,---,0.02,VWS V14.00,2013-08-17 22:08:00,
2013-08-17 18:13:00,64.2,63.0,30.14,WNW,292,0.0,0.0,96,0.02,,---,0.02,VWS V14.00,2013-08-17 22:13:00,
2013-08-17 18:18:00,64.2,63.0,30.14,WNW,292,0.0,0.0,96,0.02,,---,0.02,VWS V14.00,2013-08-17 22:18:00,
2013-08-17 18:23:00,64.2,63.0,30.14,WNW,292,0.0,0.0,96,0.02,,---,0.02,VWS V14.00,2013-08-17 22:23:00,
2013-08-17 18:29:00,64.2,63.0,30.14,WNW,292,0.0,0.0,96,0.04,,---,0.04,VWS V14.00,2013-08-17 22:29:00,
2013-08-17 18:34:00,64.0,62.8,30.14,WNW,292,0.0,0.0,96,0.04,,---,0.04,VWS V14.00,2013-08-17 22:34:00,
2013-08-17 18:39:00,64.0,62.8,30.14,WNW,292,0.0,0.0,96,0.04,,---,0.04,VWS V14.00,2013-08-17 22:39:00,
2013-08-17 18:44:00,64.0,63.1,30.14,WNW,292,0.0,0.0,97,0.04,,---,0.04,VWS V14.00,2013-08-17 22:44:00,
2013-08-17 18:49:00,63.6,62.7,30.14,WNW,292,0.0,0.0,97,0.04,,---,0.04,VWS V14.00,2013-08-17 22:49:00,
2013-08-17 18:54:00,63.6,62.7,30.14,WNW,292,0.0,0.0,97,0.06,,---,0.06,VWS V14.00,2013-08-17 22:54:00,
2013-08-17 18:59:00,63.6,62.7,30.14,WNW,292,0.0,0.0,97,0.06,,---,0.06,VWS V14.00,2013-08-17 22:59:00,
2013-08-17 19:04:00,63.5,62.6,30.14,WNW,292,0.0,0.0,97,0.06,,---,0.06,VWS V14.00,2013-08-17 23:04:00,
2013-08-17 19:09:00,63.5,62.9,30.14,WNW,292,0.0,0.0,98,0.06,,---,0.06,VWS V14.00,2013-08-17 23:09:00,
2013-08-17 19:14:00,63.3,62.7,30.14,WNW,292,0.0,0.0,98,0.04,,---,0.06,VWS V14.00,2013-08-17 23:14:00,
2013-08-17 19:19:00,63.3,62.7,30.14,WNW,292,0.0,0.0,98,0.06,,---,0.08,VWS V14.00,2013-08-17 23:19:00,
2013-08-17 19:24:00,63.1,62.5,30.14,WNW,292,0.0,0.0,98,0.06,,---,0.08,VWS V14.00,2013-08-17 23:24:00,
2013-08-17 19:29:00,63.3,63.0,30.14,WNW,292,0.0,0.0,99,0.06,,---,0.08,VWS V14.00,2013-08-17 23:29:00,
2013-08-17 19:34:00,63.1,62.8,30.14,WNW,292,0.0,0.0,99,0.04,,---,0.08,VWS V14.00,2013-08-17 23:34:00,
2013-08-17 19:39:00,63.1,62.8,30.14,WNW,292,0.0,0.0,99,0.04,,---,0.08,VWS V14.00,2013-08-17 23:39:00,
2013-08-17 19:44:00,63.1,62.8,30.14,WSW,248,0.0,0.0,99,0.04,,---,0.08,VWS V14.00,2013-08-17 23:44:00,
2013-08-17 19:49:00,62.9,62.6,30.14,WSW,248,0.0,0.0,99,0.04,,---,0.08,VWS V14.00,2013-08-17 23:49:00,
2013-08-17 19:54:00,62.9,62.6,30.14,WSW,248,0.0,0.0,99,0.04,,---,0.08,VWS V14.00,2013-08-17 23:54:00,
2013-08-17 19:59:00,62.7,62.4,30.14,SW,225,0.0,0.0,99,0.04,,---,0.08,VWS V14.00,2013-08-17 23:59:00,
2013-08-17 20:04:00,62.7,62.4,30.14,WSW,248,0.0,0.0,99,0.02,,---,0.08,VWS V14.00,2013-08-18 00:04:00,
2013-08-17 20:09:00,62.7,62.4,30.14,WSW,248,0.0,0.0,99,0.02,,---,0.08,VWS V14.00,2013-08-18 00:09:00,
2013-08-17 20:14:00,62.6,62.3,30.14,WSW,248,0.0,0.0,99,0.02,,---,0.08,VWS V14.00,2013-08-18 00:14:00,
2013-08-17 20:19:00,62.4,62.1,30.14,WSW,248,0.0,0.0,99,0.02,,---,0.08,VWS V14.00,2013-08-18 00:19:00,
2013-08-17 20:24:00,62.4,62.1,30.14,WSW,248,0.0,0.0,99,0.00,,---,0.08,VWS V14.00,2013-08-18 00:24:00,
2013-08-17 20:29:00,62.4,62.1,30.14,WSW,248,0.0,0.0,99,0.00,,---,0.08,VWS V14.00,2013-08-18 00:29:00,
2013-08-17 20:35:00,62.4,62.1,30.14,WSW,248,0.0,0.0,99,0.00,,---,0.08,VWS V14.00,2013-08-18 00:35:00,
2013-08-17 20:40:00,62.4,62.1,30.14,WSW,248,0.0,0.0,99,0.00,,---,0.08,VWS V14.00,2013-08-18 00:40:00,
2013-08-17 20:45:00,62.4,62.4,30.14,WSW,248,0.0,0.0,100,0.02,,---,0.10,VWS V14.00,2013-08-18 00:45:00,
2013-08-17 20:50:00,62.2,62.2,30.14,WSW,248,0.0,0.0,100,0.02,,---,0.10,VWS V14.00,2013-08-18 00:50:00,
2013-08-17 20:55:00,62.2,62.2,30.14,WSW,248,0.0,0.0,100,0.02,,---,0.10,VWS V14.00,2013-08-18 00:55:00,
2013-08-17 21:00:00,62.2,62.2,30.14,WSW,248,0.0,0.0,100,0.02,,---,0.10,VWS V14.00,2013-08-18 01:00:00,
2013-08-17 21:05:00,62.2,62.2,30.14,SE,135,0.0,0.0,100,0.02,,---,0.10,VWS V14.00,2013-08-18 01:05:00,
2013-08-17 21:10:00,62.0,62.0,30.14,SW,225,0.0,0.0,100,0.02,,---,0.10,VWS V14.00,2013-08-18 01:10:00,
2013-08-17 21:15:00,62.0,62.0,30.15,East,90,0.0,0.0,100,0.02,,---,0.10,VWS V14.00,2013-08-18 01:15:00,
2013-08-17 21:20:00,61.8,61.8,30.15,ESE,112,0.0,0.0,100,0.02,,---,0.10,VWS V14.00,2013-08-18 01:20:00,
2013-08-17 21:25:00,61.8,61.8,30.15,ENE,68,0.0,0.0,100,0.02,,---,0.10,VWS V14.00,2013-08-18 01:25:00,
2013-08-17 21:30:00,61.8,61.8,30.15,ENE,68,0.0,0.0,100,0.02,,---,0.10,VWS V14.00,2013-08-18 01:30:00,
2013-08-17 21:35:00,61.8,61.8,30.16,SE,135,0.0,0.0,100,0.02,,---,0.10,VWS V14.00,2013-08-18 01:35:00,
2013-08-17 21:40:00,61.8,61.8,30.16,WSW,248,0.0,0.0,100,0.02,,---,0.10,VWS V14.00,2013-08-18 01:40:00,
2013-08-17 21:45:00,61.8,61.8,30.16,WSW,248,0.0,0.0,100,0.02,,---,0.10,VWS V14.00,2013-08-18 01:45:00,
2013-08-17 21:50:00,61.8,61.8,30.16,WSW,248,0.0,0.0,100,0.00,,---,0.10,VWS V14.00,2013-08-18 01:50:00,
2013-08-17 21:55:00,61.8,61.8,30.17,WSW,248,0.0,0.0,100,0.00,,---,0.10,VWS V14.00,2013-08-18 01:55:00,
2013-08-17 22:00:00,61.8,61.8,30.17,WSW,248,0.0,0.0,100,0.00,,---,0.10,VWS V14.00,2013-08-18 02:00:00,
2013-08-17 22:05:00,61.8,61.8,30.17,WSW,248,0.0,0.0,100,0.02,,---,0.12,VWS V14.00,2013-08-18 02:05:00,
2013-08-17 22:10:00,61.8,61.8,30.17,WSW,248,0.0,0.0,100,0.02,,---,0.12,VWS V14.00,2013-08-18 02:10:00,
2013-08-17 22:15:00,61.7,61.7,30.18,WSW,248,0.0,0.0,100,0.02,,---,0.12,VWS V14.00,2013-08-18 02:15:00,
2013-08-17 22:20:00,61.7,61.7,30.17,WSW,248,0.0,0.0,100,0.02,,---,0.12,VWS V14.00,2013-08-18 02:20:00,
2013-08-17 22:26:00,61.7,61.7,30.17,WSW,248,0.0,0.0,100,0.02,,---,0.12,VWS V14.00,2013-08-18 02:26:00,
2013-08-17 22:30:00,61.7,61.7,30.17,WSW,248,0.0,0.0,100,0.04,,---,0.14,VWS V14.00,2013-08-18 02:30:00,
2013-08-17 22:35:00,61.7,61.7,30.17,WSW,248,0.0,0.0,100,0.04,,---,0.14,VWS V14.00,2013-08-18 02:35:00,
2013-08-17 22:40:00,61.7,61.7,30.17,WSW,248,0.0,0.0,100,0.04,,---,0.14,VWS V14.00,2013-08-18 02:40:00,
2013-08-17 22:45:00,61.7,61.7,30.18,WSW,248,0.0,0.0,100,0.04,,---,0.14,VWS V14.00,2013-08-18 02:45:00,
2013-08-17 22:51:00,61.7,61.7,30.18,WSW,248,0.0,0.0,100,0.04,,---,0.14,VWS V14.00,2013-08-18 02:51:00,
2013-08-17 22:56:00,61.7,61.7,30.18,WSW,248,0.0,0.0,100,0.04,,---,0.14,VWS V14.00,2013-08-18 02:56:00,
2013-08-17 23:01:00,61.7,61.7,30.18,WSW,248,0.0,0.0,100,0.04,,---,0.14,VWS V14.00,2013-08-18 03:01:00,
2013-08-17 23:06:00,61.7,61.7,30.17,WSW,248,0.0,0.0,100,0.04,,---,0.14,VWS V14.00,2013-08-18 03:06:00,
2013-08-17 23:11:00,61.7,61.7,30.17,WSW,248,0.0,0.0,100,0.02,,---,0.14,VWS V14.00,2013-08-18 03:11:00,
2013-08-17 23:16:00,61.7,61.7,30.18,WSW,248,0.0,0.0,100,0.02,,---,0.14,VWS V14.00,2013-08-18 03:16:00,
2013-08-17 23:21:00,61.7,61.7,30.18,WSW,248,0.0,0.0,100,0.02,,---,0.14,VWS V14.00,2013-08-18 03:21:00,
2013-08-17 23:26:00,61.7,61.7,30.19,WSW,248,0.0,0.0,100,0.02,,---,0.14,VWS V14.00,2013-08-18 03:26:00,
2013-08-17 23:31:00,61.7,61.7,30.18,WSW,248,0.0,0.0,100,0.00,,---,0.14,VWS V14.00,2013-08-18 03:31:00,
2013-08-17 23:36:00,61.8,61.8,30.19,WSW,248,0.0,0.0,100,0.00,,---,0.14,VWS V14.00,2013-08-18 03:36:00,
2013-08-17 23:41:00,61.8,61.8,30.18,WSW,248,0.0,0.0,100,0.00,,---,0.14,VWS V14.00,2013-08-18 03:41:00,
2013-08-17 23:46:00,61.8,61.8,30.18,WSW,248,0.0,0.0,100,0.02,,---,0.16,VWS V14.00,2013-08-18 03:46:00,
2013-08-17 23:51:00,61.8,61.8,30.18,WSW,248,0.0,0.0,100,0.02,,---,0.16,VWS V14.00,2013-08-18 03:51:00,
2013-08-17 23:56:00,61.8,61.8,30.18,WSW,248,0.0,0.0,100,0.02,,---,0.16,VWS V14.00,2013-08-18 03:56:00,